Location: Monroe
(41.9160°N, 83.3980°W)
Time: 11:56:31
(UTC-04:00)

Daily predictions for brighter satellites

Satellite Brightness Start Highest point End
(mag) Time Altitude Azimuth Time Altitude Azimuth Time Altitude Azimuth
ARGOS 3.8 21:37:41 10° SE 21:42:45 42° ENE 21:47:51 10° N
Cosmos 1315 Rocket 3.0 21:39:58 10° S 21:43:56 58° E 21:47:59 10° NNE
Cosmos 1953 4.1 21:41:15 10° NNW 21:44:50 32° W 21:48:24 10° SSW
Spot 2 Rocket 3.6 21:44:45 10° SSE 21:49:48 89° WSW 21:54:54 10° NNW
Cosmos 1420 Rocket 4.5 21:46:28 10° NNW 21:51:35 61° WSW 21:56:40 10° S
Cosmos 1452 Rocket 4.3 21:47:00 10° NNW 21:52:09 53° WSW 21:57:14 10° S
Cosmos 1844 Rocket 2.8 21:52:24 10° S 21:57:56 58° ESE 22:03:29 10° NNE
CZ-4B DEB 4.5 21:55:09 10° SSE 21:58:35 70° ENE 22:02:02 10° N
COSMOS 2406 4.0 21:53:37 10° N 21:59:02 40° ENE 22:04:22 10° SE
Cosmos 1844 3.9 21:58:50 10° S 22:04:17 50° ESE 22:09:52 10° NE
SL-08 RB Rocket 4.1 22:01:28 10° SSE 22:05:57 49° ENE 22:10:28 10° N
ATLAS 3B R/B 3.2 22:00:21 10° NNW 22:06:45 46° NE 22:12:52 11° ESE
Cosmos 1238 Rocket 2.0 22:05:19 10° S 22:08:15 80° E 22:11:19 10° N
Cosmos 1110 Rocket 4.3 22:03:45 10° NNW 22:08:51 55° ENE 22:13:32 12° SE
Cosmos 2285 Rocket 4.1 22:03:03 10° SSW 22:09:23 90° NW 22:15:43 10° NNE
SPOT 5 4.2 22:06:25 11° SE 22:10:40 29° ENE 22:15:11 10° N
USA 238 DEB 4.0 22:03:54 10° NNW 22:11:01 65° NE 22:17:40 12° SE
USA 238 4.0 22:04:01 10° NNW 22:11:07 65° NE 22:17:45 12° SE
Cosmos 2084 3.3 22:08:52 10° NW 22:12:42 69° WSW 22:16:07 13° SSE
Cosmos 1346 Rocket 2.8 22:11:01 10° N 22:15:03 78° E 22:19:03 10° SSE
Lacrosse 5 2.8 22:10:16 10° WSW 22:15:13 54° NW 22:20:12 10° NE
ATLAS 5 CENTAUR R/B 3.4 22:14:23 12° ESE 22:15:16 13° ESE 22:17:19 10° E
Cosmos-2242 3.0 22:12:28 10° N 22:16:54 78° E 22:21:17 10° S
Cosmos 1331 Rocket 4.1 22:16:07 10° NNW 22:21:17 63° ENE 22:25:39 15° SSE
S3M 4.4 22:16:00 10° SSE 22:21:59 46° E 22:28:02 10° NNE
Meteor 1-24 Rocket 4.0 22:16:08 10° S 22:22:11 85° W 22:28:13 10° N
NOSS 3-2 (A) 4.4 22:15:13 10° NNW 22:22:33 55° NE 22:29:42 13° ESE
Cosmos 494 Rocket 4.0 22:18:10 10° S 22:23:22 69° ESE 22:28:37 10° NNE
H-2A R/B 2.1 22:18:46 10° SSE 22:23:59 79° ENE 22:29:25 10° N
SPOT 1/Viking Rocket 4.4 22:20:08 14° SE 22:24:05 36° ENE 22:28:46 10° N
Timation 1 Rocket 4.3 22:19:39 10° SSW 22:25:36 83° ESE 22:31:36 10° NNE
Cosmos 2082 Rocket 4.1 22:24:32 10° N 22:28:22 18° NE 22:32:09 10° E
Cosmos 1833 Rocket 4.5 22:25:12 10° N 22:29:13 20° NE 22:33:15 10° E
Helios 1A 3.9 22:28:25 17° SE 22:31:10 35° ENE 22:35:01 10° N
Helios 1B rocket 3.8 22:28:59 10° NE 22:32:11 22° E 22:33:41 18° SE
Cosmos 1626 4.2 22:31:41 12° E 22:32:20 12° E 22:33:54 10° ENE
Centaur D-1AR AC-36 4.5 22:28:21 10° WSW 22:34:43 14° SW 22:38:10 10° S
Cosmos 1908 3.2 22:31:11 10° N 22:35:04 86° E 22:38:07 16° S
Cosmos 1842 Rocket 4.0 22:32:18 10° N 22:36:29 45° ENE 22:39:11 20° SE
CZ-2C R/B 4.3 22:35:03 10° NE 22:38:04 15° E 22:39:34 14° ESE
ATLAS 2AS CENTAUR R/B 3.3 22:30:17 10° SW 22:38:07 75° NW 22:46:18 10° NNE
Cosmos 1340 2.8 22:36:35 10° N 22:40:20 58° ENE 22:42:34 22° SSE
CSL-04 DEB 4.3 22:40:29 20° SSE 22:43:08 76° ENE 22:47:05 10° N
Cosmos 1553 Rocket 3.9 22:38:29 10° S 22:44:32 79° E 22:50:37 10° N
Landsat 7 4.4 22:42:27 20° SE 22:45:25 45° ENE 22:49:57 10° N
NOSS 3-2 (C) 4.4 22:41:03 10° NNW 22:48:27 58° NE 22:54:47 18° ESE
MetOp-B 4.5 22:43:42 12° S 22:48:41 64° WSW 22:54:01 10° NNW
Cosmos 1302 Rocket 4.2 22:45:01 10° NNW 22:50:17 63° ENE 22:53:36 22° SE
ERS-1 Rocket 3.0 22:46:44 16° S 22:50:45 81° WSW 22:55:50 10° NNW
DMSP B5D2-2 4.0 22:46:24 10° NNE 22:51:39 74° ESE 22:56:34 12° S
Cosmos 1674 3.6 22:51:09 10° SSW 22:54:50 48° W 22:58:36 10° N
Cosmos 1300 3.0 22:56:16 10° N 23:00:00 50° E 23:01:28 31° SE
Meteor 2-10 4.2 22:55:22 10° NNW 23:00:50 83° W 23:04:53 20° S
Cosmos 2251 Rocket 3.5 22:57:11 10° SSW 23:02:31 78° ESE 23:07:51 10° NNE
Cosmos 1386 Rocket 4.4 22:57:27 10° N 23:03:32 71° E 23:07:22 23° SSE
USA 215 4.4 22:58:50 14° S 23:03:35 32° SW 23:09:22 10° WNW
Terra 2.3 23:02:30 25° SE 23:04:51 45° ENE 23:09:24 10° N
Cosmos 1726 2.7 23:01:17 10° NNW 23:04:58 55° W 23:07:13 21° SSW
RESURS DK-1 4.0 23:06:04 19° E 23:06:04 19° E 23:08:36 10° ENE
Cosmos 2221 2.9 23:02:15 10° N 23:06:28 49° E 23:08:10 31° SE
H-2A R/B 4.2 23:09:34 22° SSE 23:11:30 24° SE 23:28:59 10° E
NOSS 2-2 (E) 3.5 23:11:46 32° S 23:13:10 48° ESE 23:17:18 10° NE
CENTAUR R/B 3.8 23:06:11 10° NNW 23:13:44 47° NE 23:20:13 16° ESE
OAO 3 Rocket 4.1 23:10:23 10° WSW 23:14:39 29° SSW 23:15:31 28° S
Meteor 1-29 3.2 23:12:02 10° NNE 23:15:19 46° E 23:15:43 43° ESE
NOSS 3-4 (A) 3.4 23:09:20 10° SSW 23:15:28 72° ESE 23:21:50 10° NE
NOSS 3-4 (C) 3.4 23:09:26 10° SSW 23:15:32 72° ESE 23:21:55 10° NE
EP 1 4.3 23:16:32 36° SW 23:17:27 76° NW 23:20:01 10° NNE
Cosmos 1328 4.2 23:21:27 39° SE 23:22:13 44° E 23:26:00 10° NNE
Cosmos 1461 3.2 23:17:38 10° SW 23:22:16 81° WNW 23:27:04 10° NNE
CZ-2C R/B 3.5 23:19:33 28° SE 23:22:35 62° ENE 23:28:15 10° N
Cosmos 2278 Rocket 2.2 23:19:21 10° SSW 23:25:02 85° WNW 23:30:45 10° NNE
ATLAS 3B CENTAUR R/B 4.0 23:18:28 10° SW 23:32:22 31° S 23:35:03 27° SSE
APEX 4.0 23:31:11 10° NW 23:34:15 38° WSW 23:35:06 32° SW
IGS 5A 3.5 23:33:19 39° S 23:34:45 73° WSW 23:38:55 10° NNW
Nimbus 7 Rocket 4.4 23:32:02 10° NNE 23:38:02 70° ESE 23:41:14 29° S
NOSS 2-2 (D) 3.2 23:42:34 38° SSW 23:44:00 85° SE 23:48:20 10° NE
CARTOSAT-1 3.9 23:43:53 36° SSW 23:45:23 57° W 23:49:40 10° NNW
SPOT 5 4.2 23:45:39 20° SSW 23:48:34 36° W 23:53:25 10° NNW
Cosmos 405 Rocket 4.4 23:48:49 10° NNE 23:51:38 20° ENE 23:51:43 20° ENE
Cosmos 2369 Rocket 4.2 23:54:56 12° E 23:54:56 12° E 23:56:42 10° ENE
